Location: Rounton
(54.4000°N, 1.3500°W)
Time: 01:59:42
(UTC+00:00)

Envisat - Pass Details

Date: 01 November 2021
Orbit: 764 x 766 km, 98.2° (Epoch: 28 November)

Event Time Altitude Azimuth Distance (km) Brightness Sun altitude
Rises 17:19:14 0° 202° (SSW) 3,224 6.8 -7.6°
Reaches altitude 10° 17:21:58 10° 217° (SW) 2,303 6.3 -8.0°
Maximum altitude 17:26:01 24° 270° (W) 1,568 5.7 -8.6°
Drops below altitude 10° 17:30:05 10° 323° (NW) 2,316 5.8 -9.2°
Sets 17:32:52 0° 338° (NNW) 3,247 6.4 -9.6°
